Location: *
(37.5724°S, 58.0067°E)
Time: 18:41:17
(UTC+00:00)

NOSS 3-1 (A) - Pass Details

Date: 26 June 2021
Orbit: 729 x 1483 km, 63.4° (Epoch: 23 July)

Event Time Altitude Azimuth Distance (km) Brightness Sun altitude
Rises 13:36:53 0° 205° (SSW) 3,934 6.7 -7.7°
Reaches altitude 10° 13:41:13 10° 182° (S) 2,796 5.7 -8.5°
Maximum altitude 13:44:38 15° 150° (SSE) 2,340 5.0 -9.1°
Enters shadow 13:47:14 11° 122° (ESE) 2,458 5.0 -9.6°
